Dewpoint
62 63 63 62 62 62 62 62 62 63 64 64 64 64 64 64 64 63 63 63 63 61
60 60 61 63 63 62 62 63 63 64 64 63 63 63 63 63 63 63 62 61 60 60
60 60 60 60 62 62 62 63 63 62 62 62 63 63 63 63 62 61 61 61 61 59
60 60 60 60 60 62 62 62 61 61 61 61 61 61 62 61 61 60 59 59 58 57
60 60 59 59 60 60 61 61 61 61 61 60 61 61 60 59 59 58 57 55 54 53
59 59 59 58 59 60 60 60 60 60 60 60 60 60 59 58 58 56 55 54 53 51
57 58 58 59 58 58 58 59 59 59 59 58 59 58 57 56 55 52 51 50 50 48
56 56 56 56 56 56 57 57 56 55 55 55 55 54 53 52 50 48 47 47 45 46
54 54 54 54 53 53 52 52 52 52 50 48 46 49 49 48 47 46 45 44 43 43
51 51 51 51 51 51 51 51 50 48 48 46 46 47 47 47 46 46 45 44 43 42
49 48 48 48 49 48 48 48 48 47 47 46 44 46 45 45 44 44 43 43 42 41
47 46 46 46 46 46 47 46 46 46 46 44 43 43 43 43 42 42 41 41 41 41
45 45 45 45 44 44 45 44 44 44 45 44 43 42 43 42 41 41 40 39 39 40
44 44 44 44 43 44 43 42 42 42 42 42 42 42 42 41 39 39 38 38 38 38
Lifted_Index
-0 -1 -1 -0 -0 -0 -0 -1 -1 -1 -1 -1 -1 -0 0 0 0 0 -0 -0 -0 -0
0 -0 -1 -1 -0 -0 -0 -1 -1 -1 -1 -1 -1 -0 0 0 0 0 0 0 0 -0
2 1 0 -0 -0 -0 -0 -1 -1 -1 -1 -1 -0 -0 -0 -0 0 0 1 1 1 0
2 2 2 1 0 0 0 -0 0 0 0 1 1 0 0 0 0 1 1 1 1 1
2 2 2 2 2 1 1 1 1 1 1 2 2 1 1 1 1 1 2 2 2 2
2 2 2 2 2 2 2 2 2 2 2 2 2 2 1 1 1 2 2 2 3 3
1 1 1 2 2 2 2 2 2 2 2 2 1 1 1 1 2 2 2 2 2 2
1 1 1 1 1 1 2 2 1 1 1 1 1 1 1 2 2 2 2 2 3 3
1 1 1 1 1 1 2 2 1 1 2 2 2 2 2 2 2 2 3 4 5 6
1 1 2 2 2 2 2 2 2 2 2 3 3 3 3 3 3 4 5 6 7 8
2 2 2 2 2 2 3 3 3 3 3 3 3 3 4 4 5 6 7 8 9 9
2 2 2 3 3 3 3 4 4 4 4 4 4 5 6 7 7 8 9 9 8 8
3 3 3 4 4 4 5 5 5 5 5 6 6 7 8 8 9 9 8 8 8 8
5 4 4 5 5 5 5 5 5 6 6 7 8 8 9 9 9 8 8 8 7 7